Date,TemperatureHighF,TemperatureAvgF,TemperatureLowF,DewpointHighF,DewpointAvgF,DewpointLowF,HumidityHigh,HumidityAvg,HumidityLow,PressureMaxIn,PressureMinIn,WindSpeedMaxMPH,WindSpeedAvgMPH,GustSpeedMaxMPH,PrecipitationSumIn
2013-1-1,25,23,19,19,16,13,84,74,65,0.00,40.00,10,4,0,0.00
2013-1-2,27,24,19,23,20,14,88,83,78,0.00,40.00,9,6,0,0.00
2013-1-3,29,25,19,26,21,13,92,85,74,0.00,40.00,12,7,0,0.00
2013-1-4,34,30,26,28,25,22,89,83,75,0.00,40.00,16,12,0,0.00
2013-1-5,36,30,24,32,27,24,102,90,67,0.00,40.00,9,5,0,0.00
2013-1-6,36,34,31,35,31,24,102,91,73,0.00,40.00,10,7,0,0.11
2013-1-7,38,32,27,27,23,15,92,72,42,0.00,40.00,11,7,0,0.00
2013-1-8,38,32,26,29,27,24,93,82,70,0.00,40.00,8,5,0,0.00
2013-1-9,44,38,33,35,31,26,86,74,54,0.00,40.00,22,11,0,0.00
2013-1-10,45,34,25,34,27,24,100,79,44,0.00,40.00,11,5,0,0.15
2013-1-11,51,45,36,51,45,35,102,100,94,0.00,40.00,13,8,0,0.34
2013-1-12,55,48,39,49,44,34,95,84,64,0.00,40.00,15,8,0,0.03
2013-1-13,37,31,25,36,30,22,101,96,85,0.00,40.00,7,2,0,0.17
2013-1-14,25,22,19,21,18,17,98,85,75,0.00,40.00,0,0,0,0.00
2013-1-15,31,24,19,21,20,17,96,84,61,0.00,40.00,5,1,0,0.00
2013-1-16,34,28,20,30,23,18,92,81,63,0.00,40.00,16,9,0,0.00
2013-1-17,34,27,22,30,18,10,82,68,59,0.00,40.00,15,9,0,0.00
2013-1-18,39,28,19,29,19,11,88,69,60,0.00,40.00,15,8,0,0.00
2013-1-19,44,41,39,37,32,29,81,71,62,0.00,40.00,22,12,0,0.00
2013-1-20,40,18,14,24,14,10,97,83,53,0.00,40.00,28,12,0,0.00
2013-1-21,16,11,4,14,10,3,97,93,80,0.00,40.00,13,8,0,0.00
2013-1-22,9,5,1,7,3,-1,95,93,92,0.00,40.00,8,2,0,0.00
2013-1-23,17,10,3,17,10,2,99,96,94,0.00,40.00,6,2,0,0.00
2013-1-24,16,8,-5,13,6,-7,97,91,80,0.00,40.00,4,1,0,0.01
2013-1-25,22,17,12,22,14,7,100,87,76,0.00,40.00,8,4,0,0.00
2013-1-26,27,23,18,21,19,15,100,85,64,0.00,40.00,7,2,0,0.00
2013-1-27,31,25,18,29,21,17,96,85,73,0.00,40.00,11,5,0,0.01
2013-1-28,43,36,32,43,36,31,103,99,94,0.00,40.00,12,6,0,0.50
2013-1-29,55,46,34,55,46,33,104,102,95,0.00,40.00,11,6,0,1.10
2013-1-30,50,39,25,50,39,25,104,102,96,0.00,40.00,18,6,0,0.37
2013-1-31,24,17,15,24,17,15,99,98,92,0.00,40.00,16,12,0,0.00
2013-2-1,16,13,10,16,13,9,100,98,95,0.00,40.00,11,9,0,0.00
2013-2-2,18,13,0,18,12,-2,100,97,92,0.00,40.00,6,3,0,0.00
2013-2-3,19,14,2,18,12,1,99,94,86,0.00,40.00,11,4,0,0.00
2013-2-4,23,16,6,18,14,6,99,93,78,0.00,40.00,7,2,0,0.01
2013-2-5,28,18,-1,28,16,-2,101,95,88,0.00,40.00,11,6,0,0.00
2013-2-6,32,23,9,21,18,9,98,81,58,0.00,40.00,7,2,0,0.16
2013-2-7,32,29,27,32,26,20,104,88,68,0.00,40.00,9,6,0,0.05
2013-2-8,34,27,11,30,24,11,104,93,68,0.00,40.00,7,4,0,0.13
2013-2-9,32,16,-5,19,11,-7,99,79,57,0.00,40.00,7,3,0,0.04
2013-2-10,41,29,16,41,26,15,100,89,74,0.00,40.00,11,7,0,0.17
2013-2-11,43,35,30,42,32,25,102,89,77,0.00,40.00,21,16,0,0.08
2013-2-12,30,28,26,25,24,22,87,84,80,0.00,40.00,18,11,0,0.00
2013-2-13,37,29,23,30,26,22,100,86,70,0.00,40.00,8,4,0,0.00
2013-2-14,38,32,27,34,31,27,103,96,81,0.00,40.00,18,9,0,0.08
2013-2-15,28,23,20,28,20,16,101,88,69,0.00,40.00,13,5,0,0.00
2013-2-16,20,16,5,20,15,4,99,95,87,0.00,40.00,8,4,0,0.00
2013-2-17,23,12,-5,11,5,-7,95,76,53,0.00,40.00,5,2,0,0.00
2013-2-18,44,31,18,42,22,9,99,68,54,0.00,40.00,12,8,0,0.11
2013-2-19,42,24,16,41,23,15,100,97,93,0.00,40.00,20,15,0,0.04
2013-2-20,22,19,15,17,15,13,98,85,76,0.00,40.00,13,10,0,0.00
2013-2-21,26,22,20,19,16,13,86,78,69,0.00,40.00,13,7,0,0.01
2013-2-22,32,26,20,32,24,14,103,94,75,0.00,40.00,15,10,0,0.00
2013-2-23,31,28,25,29,26,23,98,90,78,0.00,40.00,13,8,0,0.02
2013-2-24,35,29,22,29,26,21,98,85,72,0.00,40.00,11,6,0,0.04
2013-2-25,39,26,13,27,20,13,101,79,46,0.00,40.00,5,2,0,0.00
2013-2-26,34,30,28,31,24,20,103,79,63,0.00,40.00,20,11,0,0.00
2013-2-27,35,33,32,32,-79,-100,104,17,100,0.00,40.00,4,2,0,0.36
2013-2-28,38,34,30,33,20,-100,104,82,79,0.00,40.00,9,5,0,0.01
2013-3-1,30,28,21,26,20,16,84,71,55,0.00,40.00,6,4,0,0.00
2013-3-2,32,22,13,16,14,13,100,72,48,0.00,40.00,7,3,0,0.00
2013-3-3,29,20,10,17,14,10,102,79,53,0.00,40.00,12,4,0,0.00
2013-3-4,33,21,8,16,14,8,101,76,48,0.00,40.00,5,2,0,0.00
2013-3-5,32,26,21,23,17,13,83,67,59,0.00,40.00,13,9,0,0.00
2013-3-6,39,32,27,31,27,23,96,81,60,0.00,40.00,10,5,0,0.00
2013-3-7,36,31,23,31,25,20,97,77,53,0.00,40.00,12,5,0,0.00
2013-3-8,40,27,15,24,20,15,104,80,48,0.00,40.00,4,1,0,0.00
2013-3-9,41,34,23,31,26,23,100,77,58,0.00,40.00,10,5,0,0.00
2013-3-10,49,46,40,46,43,32,102,90,67,0.00,40.00,6,4,0,0.08
2013-3-11,51,44,34,50,14,-100,104,77,73,0.00,40.00,14,7,0,0.14
2013-3-12,35,32,29,35,30,26,103,92,80,0.00,40.00,14,11,0,0.02
2013-3-13,31,27,23,28,22,14,103,81,54,0.00,40.00,17,11,0,0.00
2013-3-14,37,30,23,23,20,17,88,68,52,0.00,40.00,11,4,0,0.00
2013-3-15,40,35,32,36,34,25,104,94,76,0.00,40.00,10,6,0,0.04
2013-3-16,34,30,26,34,5,-100,104,74,73,0.00,40.00,11,8,0,0.05
2013-3-17,31,28,25,23,16,10,80,63,48,0.00,40.00,12,8,0,0.00
2013-3-18,33,27,22,33,6,-100,104,74,67,0.00,40.00,14,10,0,0.03
2013-3-19,30,24,20,30,20,13,100,85,55,0.00,40.00,20,16,0,0.00
2013-3-20,27,21,15,18,15,11,100,77,54,0.00,40.00,16,12,0,0.00
2013-3-21,28,22,11,26,20,11,103,92,78,0.00,40.00,16,7,0,0.01
2013-3-22,33,28,22,24,22,19,92,76,66,0.00,40.00,11,6,0,0.01
2013-3-23,36,30,24,25,23,21,98,78,57,0.00,40.00,5,2,0,0.00
2013-3-24,37,30,24,27,24,18,100,77,54,0.00,40.00,15,8,0,0.00
2013-3-25,39,34,30,25,23,20,74,64,51,0.00,40.00,9,6,0,0.00
2013-3-26,39,34,29,36,31,25,97,86,69,0.00,40.00,15,7,0,0.00
2013-3-27,43,36,29,32,28,23,103,74,50,0.00,40.00,17,10,0,0.00
2013-3-28,48,36,27,30,26,23,102,70,36,0.00,40.00,14,5,0,0.00
2013-3-29,48,35,23,34,27,23,104,76,37,0.00,40.00,12,4,0,0.00
2013-3-30,56,39,21,33,10,-100,104,58,29,0.00,40.00,8,3,0,0.00
2013-3-31,48,43,38,43,38,33,104,85,58,0.00,40.00,14,9,0,0.03
2013-4-1,36,30,26,34,18,13,92,62,48,0.00,40.00,17,10,0,0.00
2013-4-2,37,30,20,20,16,14,95,59,38,0.00,40.00,17,8,0,0.00
2013-4-3,44,31,22,22,18,13,97,61,27,0.00,40.00,10,4,0,0.00
2013-4-4,51,38,25,26,20,17,80,51,28,0.00,40.00,14,6,0,0.00
2013-4-5,47,39,32,29,23,16,80,55,31,0.00,40.00,13,5,0,0.00
2013-4-6,58,46,34,36,24,14,71,43,31,0.00,40.00,14,9,0,0.00
2013-4-7,55,44,33,50,38,30,97,77,56,0.00,40.00,18,11,0,0.05
2013-4-8,53,40,32,52,25,-100,104,84,84,0.00,40.00,20,9,0,0.27
2013-4-9,47,42,37,47,-83,-100,103,12,100,0.00,40.00,10,6,0,1.03
2013-4-10,41,40,38,41,34,-100,104,95,90,0.00,40.00,16,11,0,0.11
2013-4-11,38,36,35,37,36,34,103,98,85,0.00,40.00,21,15,0,0.90
2013-4-12,41,37,34,39,18,-100,104,80,86,0.00,40.00,14,10,0,0.19
2013-4-13,39,36,35,37,32,29,104,87,69,0.00,40.00,18,12,0,0.03
2013-4-14,51,39,30,43,36,30,102,89,70,0.00,40.00,15,7,0,0.05
2013-4-15,64,54,46,57,49,40,102,82,74,0.00,40.00,11,8,0,0.50
2013-4-16,48,44,40,47,33,-100,104,80,65,0.00,40.00,13,7,0,0.24
2013-4-17,49,45,42,46,36,30,103,72,52,0.00,40.00,17,10,0,0.73
2013-4-18,62,53,45,62,-30,-100,104,45,91,0.00,40.00,14,8,0,1.96
2013-4-19,59,40,34,59,36,31,102,88,78,0.00,40.00,22,17,0,0.12
2013-4-20,36,32,29,29,22,18,87,65,46,0.00,40.00,16,11,0,0.00
2013-4-21,50,37,24,29,24,21,98,64,37,0.00,40.00,11,5,0,0.00
2013-4-22,63,50,35,31,30,28,74,50,26,0.00,40.00,8,6,0,0.00
2013-4-23,63,51,41,51,40,32,104,67,47,0.00,40.00,12,6,0,0.24
2013-4-24,43,38,33,40,32,24,103,83,49,0.00,40.00,18,8,0,0.10
2013-4-25,47,42,36,39,32,26,102,70,55,0.00,40.00,18,10,0,0.02
2013-4-26,64,50,36,41,33,29,78,55,33,0.00,40.00,10,6,0,0.00
2013-4-27,69,56,43,45,38,-100,84,58,28,0.00,40.00,8,4,0,0.00
2013-4-28,63,57,50,53,46,37,88,66,52,0.00,40.00,9,5,0,0.00
2013-4-29,68,54,44,59,41,-100,104,85,59,0.00,40.00,10,3,0,0.00
2013-4-30,78,70,57,59,57,51,93,65,50,0.00,40.00,12,9,0,0.00
2013-5-1,83,72,61,59,56,52,84,61,34,0.00,40.00,8,5,0,0.00
2013-5-2,81,68,58,60,56,51,92,66,39,0.00,40.00,11,5,0,0.00
2013-5-3,77,62,51,58,53,47,100,77,41,0.00,40.00,10,4,0,0.00
2013-5-4,73,66,57,46,41,35,55,41,26,0.00,40.00,13,8,0,0.00
2013-5-5,73,62,54,45,39,33,61,46,26,0.00,40.00,11,6,0,0.00
2013-5-6,74,61,47,46,39,30,88,51,19,0.00,40.00,9,3,0,0.00
2013-5-7,77,62,48,50,46,43,97,61,33,0.00,40.00,8,3,0,0.00
2013-5-8,77,65,52,56,49,42,97,59,33,0.00,40.00,11,3,0,0.00
2013-5-9,79,61,47,55,48,40,95,68,26,0.00,40.00,6,2,0,0.02
2013-5-10,56,50,46,56,48,-100,103,99,92,0.00,40.00,11,5,0,0.28
2013-5-11,52,45,38,49,41,-100,103,93,61,0.00,40.00,17,8,0,0.02
2013-5-12,45,40,36,38,32,27,100,73,49,0.00,40.00,16,11,0,0.00
2013-5-13,52,42,29,36,29,24,104,66,32,0.00,40.00,11,4,0,0.00
2013-5-14,72,58,46,53,39,27,73,49,44,0.00,40.00,13,6,0,0.00
2013-5-15,75,68,56,57,51,42,77,54,34,0.00,40.00,14,9,0,0.00
2013-5-16,76,51,45,51,23,-100,103,68,29,0.00,40.00,12,3,0,0.00
2013-5-17,69,59,53,46,34,-100,60,49,32,0.00,40.00,12,9,0,0.00
2013-5-18,79,66,55,62,50,44,85,56,41,0.00,40.00,9,5,0,0.00
2013-5-19,85,72,57,63,55,46,88,57,41,0.00,40.00,8,4,0,0.00
2013-5-20,85,77,69,71,62,55,88,63,36,0.00,40.00,15,6,0,0.00
2013-5-21,78,72,62,67,65,61,104,80,60,0.00,40.00,13,7,0,0.29
2013-5-22,69,64,56,67,64,56,104,99,89,0.00,40.00,13,5,0,0.40
2013-5-23,56,50,44,56,-12,-100,104,52,80,0.00,40.00,8,5,0,0.29
2013-5-24,55,46,35,43,39,35,101,79,59,0.00,40.00,11,5,0,0.00
2013-5-25,63,50,36,45,19,-100,104,56,30,0.00,40.00,6,3,0,0.00
2013-5-26,67,55,41,45,40,33,103,63,30,0.00,40.00,6,3,0,0.00
2013-5-27,57,54,51,52,44,37,103,73,48,0.00,40.00,12,8,0,0.05
2013-5-28,74,62,52,69,38,-100,104,82,83,0.00,40.00,10,6,0,0.53
2013-5-29,78,69,63,70,66,62,102,91,67,0.00,40.00,10,5,0,0.13
2013-5-30,84,76,69,72,68,64,92,75,53,0.00,40.00,11,7,0,0.00
2013-5-31,77,73,66,69,67,65,100,81,66,0.00,40.00,10,7,0,0.06
2013-6-1,76,71,64,68,64,-100,102,84,63,0.00,40.00,15,8,0,0.26
2013-6-2,63,55,47,63,52,40,104,91,70,0.00,40.00,10,7,0,0.10
2013-6-3,63,52,38,48,36,-100,104,64,44,0.00,40.00,9,3,0,0.00
2013-6-4,73,59,44,49,46,43,104,68,38,0.00,40.00,7,3,0,0.00
2013-6-5,69,62,58,47,43,35,66,51,29,0.00,40.00,12,6,0,0.01
2013-6-6,64,59,55,54,52,48,95,78,57,0.00,40.00,9,6,0,0.04
2013-6-7,72,61,51,52,47,43,96,64,34,0.00,40.00,11,5,0,0.00
2013-6-8,72,62,50,56,50,42,103,69,34,0.00,40.00,7,3,0,0.00
2013-6-9,79,67,56,66,59,53,104,77,48,0.00,40.00,10,5,0,0.55
2013-6-10,73,67,62,69,65,60,103,95,78,0.00,40.00,8,5,0,0.08
2013-6-11,77,65,55,69,10,-100,104,60,71,0.00,40.00,10,5,0,0.00
2013-6-12,78,70,62,70,67,62,104,92,77,0.00,40.00,8,3,0,0.69
2013-6-13,75,67,60,65,36,-100,104,66,49,0.00,40.00,10,6,0,0.27
2013-6-14,77,64,53,57,55,51,101,74,40,0.00,40.00,9,3,0,0.00
2013-6-15,72,63,52,64,52,-100,104,80,75,0.00,40.00,8,3,0,0.00
2013-6-16,77,68,63,68,64,59,104,89,60,0.00,40.00,12,7,0,0.88
2013-6-17,81,70,58,66,59,54,104,74,39,0.00,40.00,11,4,0,0.00
2013-6-18,71,64,58,61,52,39,97,67,33,0.00,40.00,10,7,0,0.00
2013-6-19,75,61,48,52,44,40,88,58,31,0.00,40.00,7,3,0,0.00
2013-6-20,81,62,49,58,52,45,104,76,31,0.00,40.00,3,1,0,0.00
2013-6-22,85,78,70,73,70,67,92,76,57,0.00,40.00,7,4,0,0.00
2013-6-23,85,75,68,72,69,67,99,82,58,0.00,40.00,10,6,0,0.00
2013-6-25,80,74,66,74,71,66,104,92,80,0.00,40.00,9,5,0,0.08
2013-6-26,82,74,66,72,70,66,103,88,66,0.00,40.00,8,4,0,0.00
2013-6-27,81,73,65,74,70,65,104,92,73,0.00,40.00,12,5,0,0.01
2013-6-28,76,70,63,68,37,-100,104,71,71,0.00,40.00,13,5,0,0.00
2013-6-29,73,68,61,65,63,61,104,87,72,0.00,40.00,9,4,0,0.00
2013-6-30,80,71,62,63,58,49,96,68,33,0.00,40.00,9,4,0,0.00
2013-7-1,77,68,57,51,47,43,77,49,31,0.00,40.00,17,7,0,0.00
2013-7-2,64,61,58,62,55,38,102,83,38,0.00,40.00,9,4,0,0.24
2013-7-3,79,67,60,69,63,56,101,88,70,0.00,40.00,8,4,0,0.00
2013-7-4,77,69,62,67,62,56,104,83,49,0.00,40.00,6,3,0,0.00
2013-7-5,82,73,61,67,64,60,104,77,47,0.00,40.00,6,2,0,0.00
2013-7-6,83,72,66,71,68,65,100,86,59,0.00,40.00,7,2,0,0.00
2013-7-7,82,75,69,72,70,69,101,88,70,0.00,40.00,8,4,0,0.00
2013-7-8,77,74,72,74,72,70,99,93,84,0.00,40.00,9,4,0,0.00
2013-7-9,83,73,65,77,71,65,104,96,76,0.00,40.00,7,2,0,0.01
2013-7-10,79,73,63,76,62,-100,103,78,49,0.00,40.00,14,7,0,0.00
2013-7-11,81,68,54,63,49,-100,104,68,31,0.00,40.00,9,3,0,0.00
2013-7-12,81,69,58,61,56,49,103,70,32,0.00,40.00,7,4,0,0.00
2013-7-13,84,72,56,65,57,53,104,61,36,0.00,40.00,8,3,0,0.00
2013-7-14,88,76,64,71,66,63,97,72,43,0.00,40.00,5,2,0,0.00
2013-7-15,91,79,68,76,71,68,104,81,48,0.00,40.00,6,2,0,0.00
2013-7-16,87,81,72,77,75,72,102,83,65,0.00,40.00,8,4,0,0.00
2013-7-17,90,80,72,78,74,72,102,83,61,0.00,40.00,9,4,0,0.00
2013-7-18,90,84,72,78,74,72,103,75,58,0.00,40.00,10,5,0,0.00
2013-7-19,89,82,79,76,74,72,91,77,56,0.00,40.00,16,8,0,0.38
2013-7-20,83,75,67,74,61,-100,97,66,42,0.00,40.00,10,4,0,0.00
2013-7-21,82,70,62,70,57,48,98,64,48,0.00,40.00,8,4,0,0.53
2013-7-22,82,72,65,71,68,65,104,87,61,0.00,40.00,8,4,0,0.01
2013-7-23,76,71,58,73,64,50,100,81,54,0.00,40.00,11,6,0,0.03
2013-7-24,73,61,46,55,49,45,104,70,36,0.00,40.00,7,3,0,0.00
2013-7-25,74,62,49,59,39,-100,104,70,47,0.00,40.00,9,2,0,0.00
2013-7-26,73,65,59,64,60,52,102,83,65,0.00,40.00,9,4,0,0.24
2013-7-27,67,62,56,63,53,-100,104,90,80,0.00,40.00,12,5,0,0.00
2013-7-28,63,57,53,58,55,53,104,84,75,0.00,40.00,11,5,0,0.55
2013-7-29,67,60,55,59,57,55,104,92,70,0.00,40.00,8,4,0,0.04
2013-7-30,77,64,48,64,12,-100,104,50,48,0.00,40.00,4,2,0,0.07
2013-7-31,69,65,63,68,65,63,103,99,95,0.00,40.00,6,3,0,0.04
2013-8-1,75,66,59,67,7,-100,104,49,48,0.00,40.00,13,5,0,0.01
2013-8-2,71,65,59,68,64,59,101,96,88,0.00,40.00,7,2,0,0.00
2013-8-3,75,67,55,65,26,-100,104,50,45,0.00,40.00,11,4,0,0.00
2013-8-4,72,61,51,58,28,-100,104,57,46,0.00,40.00,8,3,0,0.00
2013-8-5,70,59,48,59,10,-100,104,57,60,0.00,40.00,6,2,0,0.00
2013-8-6,76,68,64,70,66,63,102,94,83,0.00,40.00,7,4,0,0.00
2013-8-7,79,71,63,74,69,63,102,93,81,0.00,40.00,9,5,0,0.12
2013-8-8,78,67,58,63,55,47,104,72,34,0.00,40.00,7,3,0,0.00
2013-8-9,78,68,53,64,44,-100,104,66,50,0.00,40.00,9,3,0,0.00
2013-8-10,78,69,59,63,56,50,104,68,38,0.00,40.00,6,3,0,0.00
2013-8-11,76,65,55,61,57,53,104,78,46,0.00,40.00,8,2,0,0.00
2013-8-12,74,66,63,71,55,-100,104,91,80,0.00,40.00,3,2,0,1.10
2013-8-13,66,59,52,64,50,-100,102,78,50,0.00,40.00,9,4,0,0.00
2013-8-14,68,55,43,53,27,-100,104,67,47,0.00,40.00,8,2,0,0.00
2013-8-15,73,55,47,61,-15,-100,104,42,48,0.00,40.00,8,2,0,0.00
2013-8-16,77,62,51,63,6,-100,104,47,42,0.00,40.00,7,2,0,0.00
2013-8-17,80,65,51,63,3,-100,102,39,35,0.00,40.00,4,2,0,0.00
2013-8-18,80,66,52,61,28,-100,104,58,43,0.00,40.00,5,2,0,0.00
2013-8-19,79,62,50,64,7,-100,104,51,46,0.00,40.00,7,2,0,0.00
2013-8-20,82,71,61,71,65,61,101,81,52,0.00,40.00,8,3,0,0.00
2013-8-21,84,75,64,71,66,63,101,76,50,0.00,40.00,9,5,0,0.00
2013-8-22,76,69,63,72,55,-100,104,84,73,0.00,40.00,10,3,0,0.41
2013-8-23,81,66,53,60,-16,-100,101,31,32,0.00,40.00,5,2,0,0.00
2013-8-24,81,65,53,62,19,-100,104,52,37,0.00,40.00,5,2,0,0.00
2013-8-25,84,72,62,65,61,59,93,70,49,0.00,40.00,10,5,0,0.00
2013-8-26,82,74,69,72,68,66,91,80,66,0.00,40.00,9,5,0,0.00
2013-8-27,86,77,73,77,74,72,103,92,73,0.00,40.00,8,5,0,0.02
2013-8-28,83,78,70,74,72,70,102,83,66,0.00,40.00,7,3,0,0.00
2013-8-29,86,72,64,71,23,-100,104,54,43,0.00,40.00,5,1,0,0.00
2013-8-30,87,75,65,74,61,-100,104,81,60,0.00,40.00,11,5,0,0.00
2013-8-31,79,69,62,69,32,-100,104,66,61,0.00,40.00,6,2,0,0.00
2013-9-1,82,70,64,73,68,64,102,94,73,0.00,40.00,7,3,0,0.00
2013-9-2,70,65,59,69,61,53,104,81,68,0.00,40.00,9,4,0,0.00
2013-9-3,73,62,50,57,55,50,104,79,52,0.00,40.00,9,3,0,0.00
2013-9-4,78,66,55,64,59,55,104,82,48,0.00,40.00,10,5,0,0.00
2013-9-5,73,63,54,62,48,38,100,64,28,0.00,40.00,7,3,0,0.00
2013-9-6,79,62,48,58,51,47,104,74,31,0.00,40.00,6,3,0,0.00
2013-9-7,80,69,64,69,62,-100,97,81,65,0.00,40.00,7,4,0,0.00
2013-9-8,76,69,64,66,61,53,104,81,45,0.00,40.00,11,6,0,0.00
2013-9-9,84,70,61,75,50,-100,103,76,68,0.00,40.00,7,5,0,1.63
2013-9-10,90,82,75,75,68,62,91,67,39,0.00,40.00,11,6,0,0.00
2013-9-11,85,78,69,73,67,61,97,72,47,0.00,40.00,8,4,0,0.00
2013-9-12,75,67,58,66,48,-100,104,72,45,0.00,40.00,7,3,0,0.00
2013-9-13,64,55,47,50,44,34,99,70,33,0.00,40.00,8,4,0,0.00
2013-9-14,67,53,39,52,20,-100,103,61,49,0.00,40.00,8,3,0,0.00
2013-9-15,58,55,51,58,52,45,104,91,72,0.00,40.00,5,2,0,0.05
2013-9-16,60,54,46,53,27,-100,103,71,56,0.00,40.00,5,3,0,0.00
2013-9-17,67,52,41,52,46,41,102,81,44,0.00,40.00,6,4,0,0.00
2013-9-18,67,55,54,55,52,51,90,87,65,0.00,40.00,4,3,0,0.00
2013-9-19,74,68,64,70,66,57,104,92,70,0.00,40.00,8,5,0,0.51
2013-9-20,73,70,63,71,68,60,98,93,90,0.00,40.00,9,6,0,0.00
2013-9-21,64,58,53,60,50,-100,101,80,56,0.00,40.00,10,6,0,0.00
2013-9-22,56,51,44,50,46,43,104,83,62,0.00,40.00,5,2,0,0.00
2013-9-23,63,50,37,48,18,-100,104,62,51,0.00,40.00,9,4,0,0.00
2013-9-24,67,53,42,52,47,42,104,84,47,0.00,40.00,7,3,0,0.00
2013-9-25,70,54,45,53,9,-100,104,46,41,0.00,40.00,6,2,0,0.00
2013-9-26,74,58,44,54,18,-100,104,51,33,0.00,40.00,6,2,0,0.00
2013-9-27,77,61,46,56,37,-100,104,65,34,0.00,40.00,7,3,0,0.00
2013-9-28,78,64,53,59,51,-100,103,69,40,0.00,40.00,9,5,0,0.00
2013-9-29,71,63,52,62,54,48,104,78,49,0.00,40.00,7,4,0,0.29
2013-9-30,70,56,47,56,24,-100,104,68,45,0.00,40.00,5,2,0,0.00
2013-10-1,69,67,65,58,58,57,76,71,67,0.00,40.00,6,4,0,0.00
2013-10-2,78,64,51,58,47,35,91,61,20,0.00,40.00,4,2,0,0.00
2013-10-3,76,63,50,64,55,44,87,74,63,0.00,40.00,9,3,0,0.00
2013-10-4,76,68,64,63,62,60,89,79,61,0.00,40.00,6,3,0,0.03
2013-10-5,75,69,65,66,64,61,90,83,72,0.00,40.00,9,5,0,0.11
2013-10-6,69,60,51,64,54,43,90,84,58,0.00,40.00,8,4,0,0.29
2013-10-7,60,52,47,49,45,42,90,78,56,0.00,40.00,13,6,0,0.14
2013-10-8,70,53,42,46,42,39,90,70,41,0.00,40.00,7,3,0,0.00
2013-10-9,69,61,51,45,43,40,77,53,34,0.00,40.00,5,3,0,0.00
2013-10-10,72,52,41,48,43,39,92,74,31,0.00,40.00,5,1,0,0.00
2013-10-11,70,54,41,45,42,37,92,69,29,0.00,40.00,7,2,0,0.00
2013-10-12,76,61,53,60,47,-100,92,63,38,0.00,40.00,9,4,0,0.31
2013-10-13,61,52,42,55,43,40,93,75,50,0.00,40.00,9,4,0,0.00
2013-10-14,60,47,35,43,36,32,94,70,34,0.00,40.00,8,3,0,0.00
2013-10-15,63,54,44,59,48,39,93,81,67,0.00,40.00,7,6,0,0.27
2013-10-16,61,52,51,57,47,43,93,81,72,0.00,40.00,10,6,0,0.26
2013-10-17,51,49,43,49,46,41,94,92,89,0.00,40.00,8,3,0,0.39
2013-10-18,57,47,40,46,40,38,93,79,64,0.00,40.00,12,5,0,0.00
2013-10-19,50,44,41,39,35,-100,82,72,45,0.00,40.00,9,4,0,0.07
2013-10-20,54,48,39,45,37,34,89,67,47,0.00,40.00,7,4,0,0.04
2013-10-21,54,48,40,48,39,25,88,71,54,0.00,40.00,14,8,0,0.07
2013-10-22,46,41,36,32,27,23,86,60,49,0.00,40.00,11,7,0,0.04
2013-10-23,41,35,31,34,32,30,93,87,70,0.00,40.00,6,2,0,0.05
2013-10-24,41,35,32,35,31,26,94,85,60,0.00,40.00,8,4,0,0.28
2013-10-25,45,38,34,34,31,25,92,76,46,0.00,40.00,10,5,0,0.00
2013-10-26,50,46,42,36,29,-100,63,53,45,0.00,40.00,18,11,0,0.01
2013-10-27,51,41,35,33,31,29,84,67,44,0.00,40.00,11,3,0,0.00
2013-10-28,47,39,34,35,29,-100,91,71,58,0.00,40.00,8,4,0,0.00
2013-10-29,50,42,38,36,29,25,72,61,57,0.00,40.00,7,6,0,0.00
2013-10-30,62,48,34,53,40,32,90,74,47,0.00,40.00,6,4,0,0.26
2013-10-31,62,59,56,60,57,54,94,93,92,0.00,40.00,12,7,0,0.85
2013-11-1,54,46,44,52,42,38,94,86,74,0.00,40.00,17,9,0,0.29
2013-11-2,49,44,42,43,36,-100,94,75,55,0.00,40.00,6,3,0,0.06
2013-11-3,48,45,39,35,30,29,80,58,46,0.00,40.00,7,5,0,0.00
2013-11-4,51,44,38,35,30,29,76,60,44,0.00,40.00,11,8,0,0.00
2013-11-5,58,51,48,45,41,36,77,67,58,0.00,40.00,8,5,0,0.00
2013-11-6,55,50,40,52,45,37,93,86,63,0.00,40.00,12,9,0,0.88
2013-11-7,42,38,35,37,29,25,88,70,57,0.00,40.00,11,7,0,0.04
2013-11-8,44,38,33,32,28,25,91,69,46,0.00,40.00,7,3,0,0.00
2013-11-9,50,46,40,39,32,-100,66,59,50,0.00,40.00,16,11,0,0.00
2013-11-10,45,41,32,29,28,25,81,59,49,0.00,40.00,17,11,0,0.00
2013-11-11,45,37,26,37,29,17,89,73,60,0.00,40.00,10,6,0,0.23
2013-11-12,34,27,21,22,18,14,88,68,45,0.00,40.00,12,5,0,0.00
2013-11-13,38,25,20,21,18,17,88,76,46,0.00,40.00,13,4,0,0.00
2013-11-14,46,43,36,28,25,22,59,50,39,0.00,40.00,14,8,0,0.00
2013-11-15,49,42,37,32,28,25,65,57,45,0.00,40.00,8,6,0,0.00
2013-11-16,55,46,37,50,37,-100,89,72,65,0.00,40.00,13,7,0,0.23
2013-11-17,64,55,43,57,52,38,91,87,78,0.00,40.00,27,13,0,1.04
2013-11-18,44,40,35,36,30,25,71,67,63,0.00,40.00,21,16,0,0.00
2013-11-19,42,37,31,22,20,18,67,50,39,0.00,40.00,5,2,0,0.00
2013-11-20,43,36,29,28,22,18,71,57,36,0.00,40.00,10,6,0,0.00
2013-11-21,50,43,38,42,36,30,93,76,64,0.00,40.00,7,3,0,0.07
2013-11-22,44,36,24,43,31,21,95,81,62,0.00,40.00,7,4,0,0.00
2013-11-23,30,23,17,22,11,-100,90,62,48,0.00,40.00,12,7,0,0.00
2013-11-24,24,19,14,16,10,4,83,68,50,0.00,40.00,11,5,0,0.00
2013-11-25,33,26,20,29,18,6,95,72,51,0.00,40.00,12,10,0,0.02
2013-11-26,33,30,24,27,23,12,80,72,58,0.00,40.00,8,6,0,0.01
2013-11-27,31,23,17,16,12,8,78,64,41,0.00,40.00,8,4,0,0.00
2013-11-28,26,23,17,20,17,13,92,78,59,0.00,40.00,8,3,0,0.00
2013-11-29,32,24,13,21,18,10,92,79,57,0.00,40.00,4,2,0,0.00
2013-11-30,44,34,25,27,20,-100,73,59,50,0.00,40.00,9,5,0,0.00
2013-12-1,45,37,32,31,27,22,90,69,45,0.00,40.00,6,2,0,0.00
2013-12-2,39,33,29,28,24,20,89,70,50,0.00,40.00,7,3,0,0.00
2013-12-3,35,33,31,34,28,19,94,83,59,0.00,40.00,9,8,0,0.39
2013-12-4,56,42,35,51,41,34,96,93,84,0.00,40.00,11,6,0,0.00
2013-12-5,54,36,28,48,28,17,79,70,63,0.00,40.00,16,12,0,0.00
2013-12-6,27,22,19,17,15,13,82,72,65,0.00,40.00,9,5,0,0.00
2013-12-7,20,16,10,15,10,-100,88,80,70,0.00,40.00,6,2,0,0.00
2013-12-8,20,16,11,17,11,7,91,79,62,0.00,40.00,11,6,0,0.00
2013-12-9,27,23,17,25,16,6,94,78,62,0.00,40.00,15,10,0,0.00
2013-12-10,21,15,10,17,9,3,92,74,62,0.00,40.00,13,10,0,0.00
2013-12-11,20,18,13,17,14,10,92,83,67,0.00,40.00,10,8,0,0.00
2013-12-12,24,19,11,18,14,6,84,80,76,0.00,40.00,13,9,0,0.00
2013-12-13,26,24,21,19,17,14,83,73,67,0.00,40.00,10,5,0,0.02
2013-12-14,20,18,16,16,12,-100,88,81,73,0.00,40.00,13,9,0,0.00
2013-12-15,23,18,15,19,12,6,91,77,64,0.00,40.00,15,9,0,0.00
2013-12-16,21,14,6,12,8,3,86,75,54,0.00,40.00,6,2,0,0.01
2013-12-17,30,24,16,26,20,12,94,84,70,0.00,40.00,12,7,0,0.00
2013-12-18,29,27,24,23,16,8,83,62,46,0.00,40.00,13,8,0,0.00
2013-12-19,38,34,29,31,28,19,93,75,59,0.00,40.00,9,5,0,0.03
2013-12-20,32,31,29,30,29,27,94,92,89,0.00,40.00,9,6,0,0.15
2013-12-21,32,30,29,31,28,-100,96,93,91,0.00,40.00,7,2,0,0.04
2013-12-22,32,30,26,30,27,24,94,92,87,0.00,40.00,0,0,0,0.12
2013-12-23,25,22,17,23,20,14,92,88,83,0.00,40.00,0,0,0,0.00
2013-12-24,21,15,11,14,11,6,91,85,71,0.00,40.00,0,0,0,0.01
2013-12-25,23,18,10,22,15,6,94,86,74,0.00,40.00,0,0,0,0.00
2013-12-26,25,24,21,24,20,15,95,87,72,0.00,40.00,7,2,0,0.00
2013-12-27,39,31,25,28,26,24,95,84,64,0.00,40.00,15,4,0,0.25
2013-12-28,45,38,30,31,28,-100,92,70,52,0.00,40.00,14,7,0,0.00
2013-12-29,41,31,19,30,23,9,82,70,56,0.00,40.00,11,7,0,0.00
2013-12-30,18,15,14,10,7,1,78,67,57,0.00,40.00,8,4,0,0.00
2013-12-31,16,14,12,12,10,9,87,84,74,0.00,40.00,10,6,0,0.00
2014-1-1,13,10,10,10,4,-1,86,76,59,0.00,40.00,10,7,0,0.00
2014-1-2,13,10,-3,6,0,-9,79,67,48,0.00,40.00,11,7,0,0.00